Ismail Atal

Scout - CR Belouizdad
4 Apr 2027
Sunday
Process

Personality

Adaptability (2) Ambition (6) Controversy (13) Loyalty (1) Pressure (3) Professionalism (5) Sportsmanship (14) Temperament (12)

Profile

Coaching Style Democratic
License Continental C
Determination 10
Man Management 10
Motivating 11
Discipline 10
Job Satisfaction
95%
Fatigue
0%
Role Scout
Wage 70.7K p/w
Contract 14.03.2030

Performance

Behaviour Good
Training Effectiveness
41%
Player Development
45%
Injury Prevention
20%
Tactical Implementation
30%

Recent Events

Attended a recruitment meeting now
Assessed a player now
Attended a recruitment meeting 7d ago
Assessed a player 7d ago
Assessed a player 7d ago
Assessed a player 7d ago
Assessed a player 14d ago
Assessed a player 14d ago

Currently Monitoring

143
Player Club Status Ability Confidence Watched Last Observed Latest Vote
Bernard Mensah Wa All Stars Active 118 / 112 40% 1 02.04.2027 -
Bradley Mothiba SuperSport United Active 101 / 102 40% 1 02.04.2027 -
Mohau Nkota Al-Ettifaq Active 137 / 119 40% 5 01.04.2027 -
Ryan Stirk Chesterfield Active 90 / 108 40% 1 01.04.2027 -
Mateo Fernández Angusht Active 86 / 86 40% 4 30.03.2027 -
Callum Stead Barnet Active 110 / 100 40% 2 30.03.2027 -
Liam Bennett Cambridge United Active 116 / 95 40% 1 27.03.2027 -
Simon Ramabu Polokwane City Active 100 / 106 40% 1 27.03.2027 -
Mark Helm Fleetwood Town Active 118 / 97 40% 1 26.03.2027 -
Kirill Danilin Fakel Active 91 / 96 40% 1 26.03.2027 -
Freddie Draper Lincoln City Active 118 / 110 40% 2 23.03.2027 -
Mykola Haiduchyk Polissia Active 107 / 121 40% 1 23.03.2027 -
Dilan Markanday Chesterfield Active 119 / 94 40% 1 21.03.2027 -
Kyreece Lisbie Colchester United Active 126 / 111 40% 1 21.03.2027 -
Ali Saleh Al Wasl Active 122 / 108 40% 3 19.03.2027 -
Calum Kavanagh Oldham Athletic Active 110 / 102 40% 1 19.03.2027 -
Luka Reischl ADO Den Haag Active 118 / 112 40% 1 19.03.2027 -
Simone Rabbi Ravenna Active 102 / 114 40% 1 19.03.2027 -
Zech Medley Fleetwood Town Active 113 / 95 40% 1 18.03.2027 -
Lebogang Erasmus Platinum Stars Active 109 / 112 40% 1 18.03.2027 -
Vladimir Nikolov Slavia Sofia Active 117 / 115 40% 2 17.03.2027 -
Amos Inusah Wa All Stars Active 104 / 108 40% 1 17.03.2027 -
Migran Ageyan Ufa Active 99 / 103 40% 1 16.03.2027 -
Alessio Nepi Perugia Active 108 / 101 40% 1 15.03.2027 -
Danyil Alefirenko Chornomorets Active 108 / 99 40% 1 15.03.2027 -
Connor Barrett Walsall Active 87 / 106 40% 1 13.03.2027 -
Matthew Smith Northampton Town Active 120 / 93 40% 1 13.03.2027 -
Kwadwo Obeng Junior Heart of Lions Active 93 / 86 40% 2 11.03.2027 -
Meshari Al-Nemer Al-Diriyah Active 109 / 101 40% 1 11.03.2027 -
Felipe Fernández Vorskla Active 104 / 98 40% 1 09.03.2027 -
Slobodan Tedić Akron Active 95 / 114 40% 1 09.03.2027 -
Yaroslav Karabin Karpaty Active 119 / 111 40% 1 07.03.2027 -
Fabio Abiuso Carrarese Active 128 / 111 40% 1 07.03.2027 -
Solomon Tweh Al-Ra'ed Active 121 / 104 40% 3 03.03.2027 -
Younes El Bahraoui Al-Taawoun Active 111 / 120 40% 2 03.03.2027 -
Brian Figueroa Morelia Active 117 / 111 40% 1 02.03.2027 -
Jack Currie Oxford United Active 138 / 123 40% 2 01.03.2027 -
Udoka Godwin-Malife Burton Albion Active 105 / 102 40% 1 01.03.2027 -
Solly Khunyedi Bloemfontein Celtic Active 91 / 102 40% 1 01.03.2027 -
Jonathan Sulemana BA All Stars Active 101 / 102 40% 2 26.02.2027 -
Dillon Hoogewerf ES Mostaganem Active 88 / 106 40% 1 26.02.2027 -
Leandro Godoy CSKA Sofia Active 122 / 122 40% 2 25.02.2027 -
Ekain Orobengoa Real Sociedad Active 97 / 99 40% 1 25.02.2027 -
Hlompho Modiba Black Aces Active 102 / 93 40% 1 23.02.2027 -
Louis Appéré Cambridge United Active 99 / 94 40% 1 23.02.2027 -
Isaac Tshibangu Emirates Club Active 100 / 106 40% 6 22.02.2027 -
Dramane Kamagaté USM Alger Active 109 / 112 40% 2 22.02.2027 -
Sunday Williams Ghazl El Mahalla Active 77 / 78 40% 2 20.02.2027 -
Abdelrahman Magdy Aswan Active 80 / 79 40% 1 20.02.2027 -
Saeed Al Naqbi Al Ahli Active 115 / 115 40% 3 17.02.2027 -
Brooklyn Poggenpoel Maritzburg United Active 116 / 104 40% 2 17.02.2027 -
Nour El Islam Fettouhi JS Saoura Active 105 / 91 40% 1 16.02.2027 -
Ahmed Bahusayn Al-Taawoun Active 92 / 98 40% 1 16.02.2027 -
Wandile Duba Bidvest Wits Active 103 / 101 40% 3 15.02.2027 -
Josh Woods Accrington Stanley Active 102 / 94 40% 2 15.02.2027 -
Dominik Yankov Arda Active 98 / 107 40% 1 15.02.2027 -
Wadhah Zaidi Hajer Active 109 / 91 40% 2 10.02.2027 -
Ibrahim Cissoko Zwolle Active 113 / 121 40% 1 10.02.2027 -
Denis Rubanov Dinamo Stavropol Active 76 / 79 40% 1 05.02.2027 -
Miguel Falé Pacos de Ferreira Active 99 / 105 40% 1 05.02.2027 -
Teboho Tau Ajax Cape Town Active 106 / 108 40% 3 04.02.2027 -
Haman Mandjan Al-Ra'ed Active 106 / 100 40% 1 04.02.2027 -
Kane Drummond Oldham Athletic Active 109 / 94 40% 3 03.02.2027 -
Dmitry Tsypchenko Torpedo Moscow Active 102 / 107 40% 1 03.02.2027 -
Abdulmalik Al-Jaber Al-Nassr Active 94 / 97 40% 3 27.01.2027 -
Daniel Phillips Stevenage Active 120 / 104 40% 1 27.01.2027 -
Oussama Darfalou Olympique Akbou Active 98 / 102 55% 1 25.01.2027 -
Daniel Kyerewaa Reading Active 119 / 124 40% 2 23.01.2027 -
Siyanda Ndlovu Hearts of Oak Active 127 / 111 40% 1 23.01.2027 -
Csanád Vilmos Dénes Debrecen Active 105 / 117 40% 1 19.01.2027 -
Midana Cassamá Portimonense Active 95 / 99 40% 1 19.01.2027 -
Saeed Baattia Al-Fateh Active 103 / 94 40% 1 12.01.2027 -
Ahmed Al-Ghamdi Al-Ittihad Active 101 / 103 40% 1 12.01.2027 -
Velemseni Ndwandwe Golden Arrows Active 98 / 103 40% 2 29.12.2026 -
Abdulrahman Al-Harthi Al-Ta'ee Active 97 / 97 40% 1 29.12.2026 -
Omar Al-Ruwaili Najran Active 94 / 91 40% 1 28.12.2026 -
José Bica Leixões Active 86 / 99 40% 1 27.12.2026 -
Valentín Vada Damac Active 126 / 122 40% 1 26.12.2026 -
Sultan Mandash Al-Hilal Active 105 / 113 40% 1 23.12.2026 -
Ahmed Al-Juwaid Al-Orobah Active 88 / 89 40% 1 22.12.2026 -
Jean Charles Ahoua Al-Faisaly Active 112 / 116 40% 1 20.12.2026 -
Thabo Nodada Maritzburg United Active 112 / 110 40% 1 20.12.2026 -
Saeed Al-Hamsal Al-Khaleej Active 92 / 101 40% 2 19.12.2026 -
Abdullah Al-Yousif Al-Ra'ed Active 93 / 103 40% 2 19.12.2026 -
Moteb Al-Harbi Al-Hilal Active 127 / 125 40% 1 17.12.2026 -
Goodman Mosele Chippa United Active 112 / 103 40% 1 17.12.2026 -
José Martínes CSKA 1948 Active 95 / 100 40% 1 16.12.2026 -
Ante Roguljić Diosgyor Active 102 / 121 40% 1 15.12.2026 -
Juanjo Narváez Al-Ra'ed Active 119 / 116 40% 1 14.12.2026 -
Erick Ngcobo Black Aces Active 109 / 110 40% 1 13.12.2026 -
Ousmane Camara Sharjah Active 113 / 118 40% 4 11.12.2026 -
Hamed Al-Ghamdi Al-Wehda Active 122 / 113 40% 1 10.12.2026 -
Bernardo Folha Al Wahda Active 105 / 111 40% 2 09.12.2026 -
Agustín Ramírez Inter Active 108 / 107 40% 1 09.12.2026 -
Thabang Matuludi Polokwane City Active 113 / 104 40% 1 08.12.2026 -
Brahima Diarra Al Wahda Active 125 / 109 40% 1 08.12.2026 -
Saviour Godwin Baniyas Active 142 / 117 40% 1 07.12.2026 -
Renato Júnior Al Wasl Active 133 / 118 40% 2 03.12.2026 -
Johnson Amuzu Berekum Chelsea Active 84 / 99 40% 1 03.12.2026 -
Firas Ben Larbi Sharjah Rejected 114 / 121 40% 1 30.11.2026 Needs More Info
Kaku Al Ain Active 122 / 114 40% 1 29.11.2026 -
Leandrinho Sharjah Active 108 / 111 40% 1 28.11.2026 -
Luther Zwane Platinum Stars Active 103 / 114 40% 1 26.11.2026 -
Mouhameth Diop Al Fujairah Active 87 / 87 40% 1 26.11.2026 -
Facundo Kruspzky Al Wahda Active 118 / 126 40% 2 25.11.2026 -
Morad Khodari Al-Wehda Active 96 / 84 40% 2 25.11.2026 -
Alfredo Garcia La Equidad Active 166 / 148 40% 1 19.11.2026 -
Jason Al-Fayha Active 118 / 126 40% 1 19.11.2026 -
Suhail Al-Noobi Baniyas Active 98 / 108 40% 1 17.11.2026 -
Alfa Semedo Al-Fayha Active 131 / 107 40% 1 17.11.2026 -
Faisal Al-Abdulwahed Al-Fateh Active 80 / 86 40% 2 15.11.2026 -
Trezeguet Al-Riyadh Active 142 / 135 40% 1 13.11.2026 -
Lebogang Zwane Black Aces Active 96 / 98 40% 1 13.11.2026 -
Isaac Success Al Shaab Active 118 / 117 40% 1 10.11.2026 -
Bruno Al Jazira Active 128 / 121 40% 3 07.11.2026 -
Houssemeddine Ghacha USM Alger Active 122 / 116 40% 1 07.11.2026 -
Mfundo Vilakazi Kaizer Chiefs Active 104 / 116 40% 1 06.11.2026 -
Mohamed Kanno Al-Hilal Active 129 / 134 40% 1 04.11.2026 -
Mohammad Javad Hosseinnejad Dinamo Makhachkala Active 104 / 105 40% 1 04.11.2026 -
Robin Gonzalez HNK Vukovar 1991 Active 113 / 122 40% 1 04.11.2026 -
Jordhy Thompson Orenburg Active 118 / 118 40% 1 03.11.2026 -
João Moreira Al Nasr Active 96 / 113 40% 1 03.11.2026 -
Nabil Alioui Damac Active 96 / 100 40% 1 31.10.2026 -
Jorge Padilla Cherno More Active 117 / 103 40% 1 30.10.2026 -
Shota Shekiladze Dila Active 110 / 122 40% 1 30.10.2026 -
Mohanad Ali Dibba Active 127 / 116 40% 1 28.10.2026 -
Youssef Hassan Al Shabab Active 123 / 121 40% 3 27.10.2026 -
Saleh Abu Al-Shamat Al-Ahli Active 132 / 108 40% 1 27.10.2026 -
Vyacheslav Grulev Nizhniy Novgorod Rejected 120 / 119 40% 1 25.10.2026 Needs More Info
Hernán Luna NK Domzale Active 102 / 108 40% 1 23.10.2026 -
Albert Amoah Hajer Active 98 / 96 40% 1 20.10.2026 -
Radek Šiler Podbrezova Active 114 / 121 40% 1 19.10.2026 -
Celso Sidney Cherno More Active 90 / 101 40% 1 18.10.2026 -
Kevin Agudelo Al Nasr Active 130 / 127 40% 1 18.10.2026 -
Berna CSKA 1948 Active 126 / 120 40% 1 16.10.2026 -
Erik Al Ahli Active 119 / 107 40% 1 15.10.2026 -
Aiman Yahya Al-Nassr Active 110 / 113 40% 1 13.10.2026 -
Ibrahim Bayesh Al Dhafra Active 117 / 131 40% 1 13.10.2026 -
Mohammed Rabii Al Jazira Active 119 / 110 40% 1 11.10.2026 -
Abdoulaye Touré Al Nasr Active 109 / 101 40% 1 10.10.2026 -
Richard Akonnor Al Jazira Active 123 / 120 40% 1 07.10.2026 -
Zayed Sultan Al Nasr Active 97 / 118 40% 1 07.10.2026 -
Mohammad Ghorbani Al Wahda Active 91 / 111 40% 1 06.10.2026 -